Вернуться в каталог

HULIANWANG DIGUI-31

АктивенСвязьPO
NORAD 64284·PAYLOAD·🇨🇳 China

Запущен Jun 5, 2025 с Taiyuan Satellite Launch Center

Loading…

Ближайшие Пролёты (ближайшие 24 часа)

TLE

СвежийSource: Space-Track

Эпоха: Sep 14, 2026, 21:53 UTC

1 64284U 25121B   26257.91185459  .00000036  00000-0  50380-4 0  9998
2 64284  86.5069 343.3905 0001617 106.9090 253.2221 13.24411906 62036

Отслеживайте HULIANWANG DIGUI-31 в реальном времени с AllMySat

Download on the App Store